Regional Weather Roundup
Issued by NWS

Home | Current Version | Previous Version | Text Only | Print | Product List | Glossary On
Versions: 1 2 3 4 5 6 7 8 9 10 11 12 13 14 15 16 17 18 19 20 21 22 23 24 25 26 27 28 29 30 31 32 33 34 35 36 37 38 39 40 41 42 43 44 45 46 47 48 49 50
000
ASUS42 KKEY 071710
RWRKEY

FLORIDA REGIONAL WEATHER ROUNDUP FOR THE FLORIDA KEYS
NATIONAL WEATHER SERVICE KEY WEST FLORIDA
1200 PM EST SUN FEB 07 2016

...SOUTH FLORIDA AND THE KEYS...

CITY           SKY/WX    TMP DP  RH WIND       PRES   REMARKS
FORT MYERS     SUNNY     59  36  42 NW18G26   30.09F
SW REGIONAL AP SUNNY     60  38  43 NW15G24   30.09F
NAPLES         MOSUNNY   59  40  49 NW20G32   30.10F
MIAMI          CLOUDY    59  44  57 W13G23    30.06F
WEST KENDALL   CLOUDY    59  43  55 NW21G29   30.07F
HOMESTEAD      MOSUNNY   61  42  50 W16G25    30.06F
MARATHON       CLOUDY    64  53  67 NW16G24   30.09F
BOCA CHICA NAS CLOUDY    64  52  64 N23       30.10F
KEY WEST INTL  CLOUDY    65  54  67 N18G26    30.10F

...INTERNATIONAL WEATHER...

CITY           SKY/WX    TMP DP  RH WIND       PRES   REMARKS
NASSAU BAHAMAS PTSUNNY  N/A N/A N/A W13G29    30.00S
CANCUN MEXICO  PTSUNNY   70  55  60 NW7G18    30.18S
COZUMEL MEXICO MOSUNNY   68  57  68 N15       30.18F

ADJACENT COASTAL WATERS...

STATION/POSITION TIME  SKY/WX   TEMP    WIND        PRES    WAVE
                                AIR SEA DIR/SP/G            HT/PER
                 (UTC)          (F)     (DEG/KT/KT) (MB)    (FT/S)
PULASKI SHOAL LI NOT AVBL
SAND KEY         1650            62     360/ 24/ 28 1019.9F
SOMBRERO KEY     NOT AVBL
LONG KEY         1600            60 67  340/ 16/ 19 1019.7S
MOLASSES REEF    1700            59 74  320/ 18/ 21 1017.8F
FOWEY ROCKS      NOT AVBL

$$



USA.gov is the U.S. government's official web portal to all federal, state and local government web resources and services.